Regional Weather Roundup
Issued by NWS Charleston, SC

Current Version | Previous Version | Graphics & Text | Print | Product List | Glossary On
Versions: 1 2 3 4 5 6 7 8 9 10 11 12 13 14 15 16 17 18 19 20 21 22 23 24 25 26 27 28 29 30 31 32 33 34 35 36 37 38 39 40 41 42 43 44 45 46 47 48 49 50
000
ASUS42 KCHS 180026
RWRCHS
REGIONAL WEATHER ROUNDUP
NATIONAL WEATHER SERVICE CHARLESTON SC
800 PM EDT FRI APR 17 2015

NOTE: "FAIR" INDICATES FEW OR NO CLOUDS BELOW 12,000 FEET WITH NO
SIGNIFICANT WEATHER AND/OR OBSTRUCTIONS TO VISIBILITY.

NOT ALL STATIONS ARE QUALITY CONTROLLED BY THE NATIONAL
WEATHER SERVICE. USE DATA WITH CAUTION...ESPECIALLY
DEWPOINT OBSERVATIONS.

SCZ027-030-031-034>040-042>050-180100-
...SOUTHEAST SOUTH CAROLINA...

CITY           SKY/WX    TMP DP  RH WIND       PRES   REMARKS
N CHARLESTON   CLOUDY    70  67  90 N3        30.00S
6HR MIN TEMP:  70; 6HR MAX TEMP:  73; 6HR PCP: TRACE;

WATERFRONT PRK   N/A     70 N/A N/A CALM        N/A
MOUNT PLEASANT DRIZZLE   70  70 100 CALM      30.00S
PINOPOLIS      NOT AVBL
MONCKS CORNER  CLOUDY    70  66  88 CALM      30.00S
SUMMERVILLE    CLOUDY    70  70 100 CALM      30.00F
BEAUFORT MCAS  CLOUDY    70  67  90 N3        30.00S
6HR MIN TEMP:  70; 6HR MAX TEMP:  75;

BEAUFORT ARPT  CLOUDY    72  68  88 CALM      30.00R
HILTON HEAD IS CLOUDY    70  68  94 CALM      30.01S
WALTERBORO     DRIZZLE   68  68 100 CALM      30.01S
ALLENDALE      CLOUDY    68  68 100 CALM      30.01R FOG

...SOUTHERN MIDLANDS AND PEE DEE...

CITY           SKY/WX    TMP DP  RH WIND       PRES   REMARKS
GEORGETOWN     NOT AVBL
KINGSTREE      NOT AVBL
ORANGEBURG     CLOUDY    69  64  84 CALM      30.00F HAZE
6HR MIN TEMP:  69; 6HR MAX TEMP:  73; 6HR PCP:  0.02;

BARNWELL       DRIZZLE   70  68  94 CALM      30.02S
AIKEN          MOCLDY    64  63  94 CALM      30.05S
MANNING        LGT RAIN  66  64  94 CALM      30.01S
COLUMBIA       LGT RAIN  69  63  81 CALM      30.00F
6HR MIN TEMP:  69; 6HR MAX TEMP:  72; 6HR PCP:  0.02;

SUMTER         DRIZZLE   68  64  88 W2        29.99S
6HR MIN TEMP:  67; 6HR MAX TEMP:  73; 6HR PCP: TRACE;

FLORENCE       MOCLDY    70  65  84 NE3       30.00S
6HR MIN TEMP:  69; 6HR MAX TEMP:  74;

MYRTLE BEACH   CLOUDY    72  64  78 E6        30.02R
N MYRTLE BEACH CLOUDY    70  67  90 CALM      30.00R
6HR MIN TEMP:  70; 6HR MAX TEMP:  74; 6HR PCP: TRACE;


$$

GAZ063-065-086>088-099>101-113>116-118-119-134>141-150-180100-
...SOUTHEAST GEORGIA...

CITY           SKY/WX    TMP DP  RH WIND       PRES   REMARKS
SAVANNAH ARPT  CLOUDY    72  66  81 NW3       30.00S
6HR MIN TEMP:  72; 6HR MAX TEMP:  74;

HUNTER AAF     CLOUDY    71  69  93 S3        29.98R
6HR MIN TEMP:  71; 6HR MAX TEMP:  75; 6HR PCP: TRACE;

FORT STEWART   CLOUDY    72  66  83 W3        29.99R
6HR MIN TEMP:  71; 6HR MAX TEMP:  75; 6HR PCP: TRACE;

STATESBORO     DRIZZLE   67  67 100 CALM      30.00S
SYLVANIA       DRIZZLE   67  67  99 CALM      30.02R
CLAXTON        CLOUDY    68  68 100 CALM      30.01S

...CSRA...CENTRAL AND FAR SOUTHEAST GEORGIA...

CITY           SKY/WX    TMP DP  RH WIND       PRES   REMARKS
THOMSON        CLOUDY    66  66 100 CALM      30.06F
AUGUSTA-BUSH   LGT RAIN  67  65  93 CALM      30.01R
6HR MIN TEMP:  67; 6HR MAX TEMP:  69; 6HR PCP:  0.03;

AUGUSTA-DANIEL LGT RAIN  67  64  90 CALM      30.02S
SWAINSBORO     RAIN      68  68 100 CALM      30.02R
VIDALIA        RAIN      68  66  94 CALM      30.01S
EASTMAN        LGT RAIN  68  68 100 E5        30.01F
HAZLEHURST     CLOUDY    69  69  99 CALM      29.99S
ALMA           CLOUDY    70  68  93 CALM      29.98F
6HR MIN TEMP:  70; 6HR MAX TEMP:  77; 6HR PCP:  0.07;

WAYCROSS       CLOUDY    75  71  86 E3        29.98F
JESUP          CLOUDY    72  70  94 CALM      30.00S
BAXLEY         FAIR      70  68  94 CALM      30.00S
BRUNSWICK      CLOUDY    70  64  83 SE5       30.00F
SAINT SIMONS   CLOUDY    68  65  90 CALM      30.01R
6HR MIN TEMP:  68; 6HR MAX TEMP:  73;


$$

SCZ027-028-034-036>038-045-046-048>050-GAZ119-141-180100-
...LAKE AND SUPPLEMENTAL COASTAL OBSERVATIONS...

STATION/POSITION TIME  TEMP    WIND        PRES    WAVE   SWELL
                       AIR SEA DIR/SP/G            HT/PER HT/PER/DIR
                 (UTC) (F)     (DEG/KT/KT) (MB)    (FT/S) (FT/S/D)
UPR LAKE MARION  NOT AVBL
WINYAH BAY       2300   70      30/  5     1014.0S
LAKE MURRAY      2300   67      CALM  /  1 1015.9S
ACE BASIN NERRS  NOT AVBL
FORT PULASKI     0000   69 70  200/  2/  2 1016.3R
SAPELO ISLAND    0000   69     160/  7     1016.0S

$$

ANZ835-935-AMZ111-154-330-350-352-354-370-450-454-472-180100-
...C-MAN AND BUOY OBSERVATIONS...

STATION/POSITION TIME  TEMP    WIND        PRES    WAVE   SWELL
                       AIR SEA DIR/SP/G            HT/PER HT/PER/DIR
                 (UTC) (F)     (DEG/KT/KT) (MB)    (FT/S) (FT/S/D)
BUOY 41004       2350   71 75  360/ 10/ 12 1014.4R   4/ 9   3/ 9
BUOY 41008       2350   67 67  200/  4/  4 1016.0S   3/11   3/ 80/11
FOLLY BEACH CMAN 0000   68        CALM     1015.8R
CAPERS NEARSHORE NOT AVBL
FRIPP NEARSHORE  2300   69      CALM  /  2 1015.4F


STATION/POSITION TIME  TEMP    WIND        PRES    WAVE   SWELL
                       AIR SEA DIR/SP/G            HT/PER HT/PER/DIR
                 (UTC) (F)     (DEG/KT/KT) (MB)    (FT/S) (FT/S/D)
5E ST. MARYS GA  2321      70                N/A     3/11   2/ 80/11
FRYING PAN BUOY  2350   72 74   50/  8/ 10 1015.3R   4/ 7   5/110/ 7
BUOY 41025       2350   71 75   CALM  /  2 1016.0F   6/ 8   5/ 90/ 8
CAPE LOOKOUT NC  0000   69     100/  4/  4 1015.6R
BUOY 41002       2350   71 73   20/  6/  8 1015.3R   7/ 8   7/ 70/ 8
BUOY 41010       2320   77 79   80/  4/  4 1016.2S
ST AUGUSTINE FL  0000   68 69   60/  3/  4 1016.8F


$$


USA.gov is the U.S. government's official web portal to all federal, state and local government web resources and services.